^^
Station Historical Data
Daily Summary for February 17, 2018 Units:  English    Metric   Both
« Previous Day
Next Day »
Daily Weekly Monthly Yearly Custom
  High: Low: Average:
Temperature: TemperatureF °F 57.0 °F 70.5 °F
Dew Point: DewpointF °F 52.8 °F 58.7 °F
Humidity: Humidity% 37% 71%
Wind Speed: WindSpeedMPHmph 0.0mph 0mph
Wind Gust: WindSpeedGustMPHmph - -
Wind- - North
Pressure: PressureIn in 30.13 in -
Precipitation: 0.00 in    
Historical Graphs
 
 
Tabular Data for February 17, 2018
Time Temperature Dew Point Pressure Wind Wind Speed Wind Gust Humidity Rainfall Rate (Hourly) solar Conditions
TemperatureF °F DewpointF °F PressureIn in Calm     Humidity% HourlyPrecipIn in SolarRadiationWatts/m^2 W/m2 Conditions
00:00 69.1 °F 60.8 °F 30.19 in Calm     75% 0.00 in 0.0 W/m2 CLR
00:05 66.9 °F 61.9 °F 30.19 in Calm     84% 0.00 in 0.0 W/m2 CLR
00:10 66.9 °F 61.9 °F 30.19 in Calm     84% 0.00 in 0.0 W/m2 CLR
00:15 66.9 °F 61.9 °F 30.19 in Calm     84% 0.00 in 0.0 W/m2 CLR
00:20 66.9 °F 61.9 °F 30.19 in Calm     84% 0.00 in 0.0 W/m2 CLR
00:25 66.9 °F 61.9 °F 30.19 in Calm     84% 0.00 in 0.0 W/m2 CLR
00:30 66.9 °F 61.9 °F 30.19 in Calm     84% 0.00 in 0.0 W/m2 CLR
00:35 66.9 °F 61.9 °F 30.19 in Calm     84% 0.00 in 0.0 W/m2 CLR
00:40 66.9 °F 61.9 °F 30.19 in Calm     84% 0.00 in 0.0 W/m2 CLR
00:45 66.9 °F 61.9 °F 30.19 in Calm     84% 0.00 in 0.0 W/m2 CLR
00:50 66.9 °F 61.9 °F 30.19 in Calm     84% 0.00 in 0.0 W/m2 CLR
00:55 66.9 °F 61.9 °F 30.19 in Calm     84% 0.00 in 0.0 W/m2 CLR
01:00 66.9 °F 61.9 °F 30.19 in Calm     84% 0.00 in 0.0 W/m2 CLR
01:05 66.0 °F 62.0 °F 30.18 in Calm     87% 0.00 in 0.0 W/m2 CLR
01:10 66.0 °F 62.0 °F 30.18 in Calm     87% 0.00 in 0.0 W/m2 CLR
01:15 66.0 °F 62.0 °F 30.18 in Calm     87% 0.00 in 0.0 W/m2 CLR
01:20 66.0 °F 62.0 °F 30.18 in Calm     87% 0.00 in 0.0 W/m2 CLR
01:25 66.0 °F 62.0 °F 30.18 in Calm     87% 0.00 in 0.0 W/m2 CLR
01:30 66.0 °F 62.0 °F 30.18 in Calm     87% 0.00 in 0.0 W/m2 CLR
01:35 66.0 °F 62.0 °F 30.18 in Calm     87% 0.00 in 0.0 W/m2 CLR
01:40 66.0 °F 62.0 °F 30.18 in Calm     87% 0.00 in 0.0 W/m2 CLR
01:45 66.0 °F 62.0 °F 30.18 in Calm     87% 0.00 in 0.0 W/m2 CLR
01:50 66.0 °F 62.0 °F 30.18 in Calm     87% 0.00 in 0.0 W/m2 CLR
01:55 66.0 °F 62.0 °F 30.18 in Calm     87% 0.00 in 0.0 W/m2 CLR
02:00 66.0 °F 62.0 °F 30.18 in Calm     87% 0.00 in 0.0 W/m2 CLR
02:05 63.0 °F 61.8 °F 30.17 in Calm     96% 0.00 in 0.0 W/m2 CLR
02:10 63.0 °F 61.8 °F 30.17 in Calm     96% 0.00 in 0.0 W/m2 CLR
02:15 63.0 °F 61.8 °F 30.17 in Calm     96% 0.00 in 0.0 W/m2 CLR
02:20 63.0 °F 61.8 °F 30.17 in Calm     96% 0.00 in 0.0 W/m2 CLR
02:25 63.0 °F 61.8 °F 30.17 in Calm     96% 0.00 in 0.0 W/m2 CLR
02:30 63.0 °F 61.8 °F 30.17 in Calm     96% 0.00 in 0.0 W/m2 CLR
02:35 63.0 °F 61.8 °F 30.17 in Calm     96% 0.00 in 0.0 W/m2 CLR
02:40 63.0 °F 61.8 °F 30.17 in Calm     96% 0.00 in 0.0 W/m2 CLR
02:45 63.0 °F 61.8 °F 30.17 in Calm     96% 0.00 in 0.0 W/m2 CLR
02:50 63.0 °F 61.8 °F 30.17 in Calm     96% 0.00 in 0.0 W/m2 CLR
02:55 63.0 °F 61.8 °F 30.17 in Calm     96% 0.00 in 0.0 W/m2 CLR
03:00 63.0 °F 61.8 °F 30.17 in Calm     96% 0.00 in 0.0 W/m2 CLR
03:05 62.1 °F 60.9 °F 30.17 in Calm     96% 0.00 in 0.0 W/m2 CLR
03:10 62.1 °F 60.9 °F 30.17 in Calm     96% 0.00 in 0.0 W/m2 CLR
03:15 62.1 °F 60.9 °F 30.17 in Calm     96% 0.00 in 0.0 W/m2 CLR
03:20 62.1 °F 60.9 °F 30.17 in Calm     96% 0.00 in 0.0 W/m2 CLR
03:25 62.1 °F 60.9 °F 30.17 in Calm     96% 0.00 in 0.0 W/m2 CLR
03:30 62.1 °F 60.9 °F 30.17 in Calm     96% 0.00 in 0.0 W/m2 CLR
03:35 62.1 °F 60.9 °F 30.17 in Calm     96% 0.00 in 0.0 W/m2 CLR
03:40 62.1 °F 60.9 °F 30.17 in Calm     96% 0.00 in 0.0 W/m2 CLR
03:45 62.1 °F 60.9 °F 30.17 in Calm     96% 0.00 in 0.0 W/m2 CLR
03:50 62.1 °F 60.9 °F 30.17 in Calm     96% 0.00 in 0.0 W/m2 CLR
03:55 62.1 °F 60.9 °F 30.17 in Calm     96% 0.00 in 0.0 W/m2 CLR
04:00 62.1 °F 60.9 °F 30.17 in Calm     96% 0.00 in 0.0 W/m2 CLR
04:05 60.1 °F 60.1 °F 30.16 in Calm     100% 0.00 in 0.0 W/m2 CLR
04:10 60.1 °F 60.1 °F 30.16 in Calm     100% 0.00 in 0.0 W/m2 CLR
04:15 60.1 °F 60.1 °F 30.16 in Calm     100% 0.00 in 0.0 W/m2 CLR
04:20 60.1 °F 60.1 °F 30.16 in Calm     100% 0.00 in 0.0 W/m2 CLR
04:25 60.1 °F 60.1 °F 30.16 in Calm     100% 0.00 in 0.0 W/m2 CLR
04:30 60.1 °F 60.1 °F 30.16 in Calm     100% 0.00 in 0.0 W/m2 CLR
04:35 60.1 °F 60.1 °F 30.16 in Calm     100% 0.00 in 0.0 W/m2 CLR
04:40 60.1 °F 60.1 °F 30.16 in Calm     100% 0.00 in 0.0 W/m2 CLR
04:45 60.1 °F 60.1 °F 30.16 in Calm     100% 0.00 in 0.0 W/m2 CLR
04:50 60.1 °F 60.1 °F 30.16 in Calm     100% 0.00 in 0.0 W/m2 CLR
04:55 60.1 °F 60.1 °F 30.16 in Calm     100% 0.00 in 0.0 W/m2 CLR
05:00 60.1 °F 60.1 °F 30.16 in Calm     100% 0.00 in 0.0 W/m2 CLR
05:05 61.0 °F 61.0 °F 30.16 in Calm     100% 0.00 in 0.0 W/m2 CLR
05:10 61.0 °F 61.0 °F 30.16 in Calm     100% 0.00 in 0.0 W/m2 CLR
05:15 61.0 °F 61.0 °F 30.16 in Calm     100% 0.00 in 0.0 W/m2 CLR
05:20 61.0 °F 61.0 °F 30.16 in Calm     100% 0.00 in 0.0 W/m2 CLR
05:25 61.0 °F 61.0 °F 30.16 in Calm     100% 0.00 in 0.0 W/m2 CLR
05:30 61.0 °F 61.0 °F 30.16 in Calm     100% 0.00 in 0.0 W/m2 CLR
05:35 61.0 °F 61.0 °F 30.16 in Calm     100% 0.00 in 0.0 W/m2 CLR
05:40 61.0 °F 61.0 °F 30.16 in Calm     100% 0.00 in 0.0 W/m2 CLR
05:45 61.0 °F 61.0 °F 30.16 in Calm     100% 0.00 in 0.0 W/m2 CLR
05:50 61.0 °F 61.0 °F 30.16 in Calm     100% 0.00 in 0.0 W/m2 CLR
05:55 61.0 °F 61.0 °F 30.16 in Calm     100% 0.00 in 0.0 W/m2 CLR
06:00 61.0 °F 61.0 °F 30.16 in Calm     100% 0.00 in 0.0 W/m2 CLR
06:05 61.0 °F 61.0 °F 30.18 in Calm     100% 0.00 in 0.0 W/m2
06:10 61.0 °F 61.0 °F 30.18 in Calm     100% 0.00 in 0.0 W/m2
06:15 61.0 °F 61.0 °F 30.18 in Calm     100% 0.00 in 0.0 W/m2
06:20 61.0 °F 61.0 °F 30.18 in Calm     100% 0.00 in 0.0 W/m2
06:25 61.0 °F 61.0 °F 30.18 in Calm     100% 0.00 in 0.0 W/m2
06:30 61.0 °F 61.0 °F 30.18 in Calm     100% 0.00 in 0.0 W/m2
06:35 61.0 °F 61.0 °F 30.18 in Calm     100% 0.00 in 0.0 W/m2 OVC
06:40 61.0 °F 61.0 °F 30.18 in Calm     100% 0.00 in 0.0 W/m2 OVC
06:45 61.0 °F 61.0 °F 30.18 in Calm     100% 0.00 in 0.0 W/m2 OVC
06:50 61.0 °F 61.0 °F 30.18 in Calm     100% 0.00 in 0.0 W/m2
06:55 61.0 °F 61.0 °F 30.18 in Calm     100% 0.00 in 0.0 W/m2
07:00 61.0 °F 61.0 °F 30.18 in Calm     100% 0.00 in 0.0 W/m2
07:05 57.0 °F 57.0 °F 30.19 in Calm     100% 0.00 in 0.0 W/m2 OVC
07:10 57.0 °F 57.0 °F 30.19 in Calm     100% 0.00 in 0.0 W/m2 OVC
07:15 57.0 °F 57.0 °F 30.19 in Calm     100% 0.00 in 0.0 W/m2 OVC
07:20 57.0 °F 57.0 °F 30.19 in Calm     100% 0.00 in 0.0 W/m2 OVC
07:25 57.0 °F 57.0 °F 30.19 in Calm     100% 0.00 in 0.0 W/m2 OVC
07:30 57.0 °F 57.0 °F 30.19 in Calm     100% 0.00 in 0.0 W/m2 OVC
07:35 59.0 °F 59.0 °F 30.21 in Calm     100% 0.00 in 0.0 W/m2 OVC
07:40 59.0 °F 59.0 °F 30.21 in Calm     100% 0.00 in 0.0 W/m2 OVC
07:45 59.0 °F 59.0 °F 30.21 in Calm     100% 0.00 in 0.0 W/m2 OVC
07:50 59.0 °F 59.0 °F 30.21 in Calm     100% 0.00 in 0.0 W/m2 OVC
07:55 59.0 °F 59.0 °F 30.21 in Calm     100% 0.00 in 0.0 W/m2 OVC
08:00 59.0 °F 59.0 °F 30.21 in Calm     100% 0.00 in 0.0 W/m2 OVC
08:05 62.1 °F 62.1 °F 30.22 in Calm     100% 0.00 in 0.0 W/m2 OVC
08:10 62.1 °F 62.1 °F 30.22 in Calm     100% 0.00 in 0.0 W/m2 OVC
08:15 62.1 °F 62.1 °F 30.22 in Calm     100% 0.00 in 0.0 W/m2 OVC
08:20 62.1 °F 62.1 °F 30.22 in Calm     100% 0.00 in 0.0 W/m2 OVC
08:25 62.1 °F 62.1 °F 30.22 in Calm     100% 0.00 in 0.0 W/m2 OVC
08:30 62.1 °F 62.1 °F 30.22 in Calm     100% 0.00 in 0.0 W/m2 OVC
08:35 63.0 °F 63.0 °F 30.22 in Calm     100% 0.00 in 0.0 W/m2 OVC
08:40 63.0 °F 63.0 °F 30.22 in Calm     100% 0.00 in 0.0 W/m2 OVC
08:45 63.0 °F 63.0 °F 30.22 in Calm     100% 0.00 in 0.0 W/m2 OVC
08:50 64.0 °F 64.0 °F 30.23 in Calm     100% 0.00 in 0.0 W/m2 OVC
08:55 64.0 °F 64.0 °F 30.23 in Calm     100% 0.00 in 0.0 W/m2 OVC
09:00 64.0 °F 64.0 °F 30.23 in Calm     100% 0.00 in 0.0 W/m2 OVC
09:05 63.0 °F 63.0 °F 30.23 in Calm     100% 0.00 in 0.0 W/m2 OVC
09:10 63.0 °F 63.0 °F 30.23 in Calm     100% 0.00 in 0.0 W/m2 OVC
09:15 63.0 °F 63.0 °F 30.23 in Calm     100% 0.00 in 0.0 W/m2 OVC
09:20 63.0 °F 63.0 °F 30.23 in Calm     100% 0.00 in 0.0 W/m2 OVC
09:25 63.0 °F 63.0 °F 30.23 in Calm     100% 0.00 in 0.0 W/m2 OVC
09:30 63.0 °F 63.0 °F 30.23 in Calm     100% 0.00 in 0.0 W/m2 OVC
09:35 64.9 °F 64.9 °F 30.23 in Calm     100% 0.00 in 0.0 W/m2 OVC
09:40 64.9 °F 64.9 °F 30.23 in Calm     100% 0.00 in 0.0 W/m2 OVC
09:45 64.9 °F 64.9 °F 30.23 in Calm     100% 0.00 in 0.0 W/m2 OVC
09:50 64.9 °F 64.9 °F 30.23 in Calm     100% 0.00 in 0.0 W/m2 OVC
09:55 64.9 °F 64.9 °F 30.23 in Calm     100% 0.00 in 0.0 W/m2 OVC
10:00 64.9 °F 64.9 °F 30.23 in Calm     100% 0.00 in 0.0 W/m2 OVC
10:05 66.9 °F 64.8 °F 30.23 in Calm     93% 0.00 in 0.0 W/m2 OVC
10:10 66.9 °F 64.8 °F 30.23 in Calm     93% 0.00 in 0.0 W/m2 OVC
10:15 66.9 °F 64.8 °F 30.23 in Calm     93% 0.00 in 0.0 W/m2 OVC
10:20 66.9 °F 64.8 °F 30.23 in Calm     93% 0.00 in 0.0 W/m2 OVC
10:25 66.9 °F 64.8 °F 30.23 in Calm     93% 0.00 in 0.0 W/m2 OVC
10:30 66.9 °F 64.8 °F 30.23 in Calm     93% 0.00 in 0.0 W/m2 OVC
10:35 66.9 °F 64.8 °F 30.23 in Calm     93% 0.00 in 0.0 W/m2 OVC
10:40 66.9 °F 64.8 °F 30.23 in Calm     93% 0.00 in 0.0 W/m2 OVC
10:45 66.9 °F 64.8 °F 30.23 in Calm     93% 0.00 in 0.0 W/m2 OVC
10:50 66.9 °F 64.8 °F 30.23 in Calm     93% 0.00 in 0.0 W/m2 OVC
10:55 66.9 °F 64.8 °F 30.23 in Calm     93% 0.00 in 0.0 W/m2 OVC
11:00 66.9 °F 64.8 °F 30.23 in Calm     93% 0.00 in 0.0 W/m2 OVC
11:05 73.0 °F 64.6 °F 30.23 in Calm     75% 0.00 in 0.0 W/m2 SCT
11:10 73.0 °F 64.6 °F 30.23 in Calm     75% 0.00 in 0.0 W/m2 SCT
11:15 73.0 °F 64.6 °F 30.23 in Calm     75% 0.00 in 0.0 W/m2 SCT
11:20 73.0 °F 64.6 °F 30.23 in Calm     75% 0.00 in 0.0 W/m2 SCT
11:25 73.0 °F 64.6 °F 30.23 in Calm     75% 0.00 in 0.0 W/m2 SCT
11:30 73.0 °F 64.6 °F 30.23 in Calm     75% 0.00 in 0.0 W/m2 SCT
11:35 73.0 °F 64.6 °F 30.23 in Calm     75% 0.00 in 0.0 W/m2 SCT
11:40 73.0 °F 64.6 °F 30.23 in Calm     75% 0.00 in 0.0 W/m2 SCT
11:45 73.0 °F 64.6 °F 30.23 in Calm     75% 0.00 in 0.0 W/m2 SCT
11:50 73.0 °F 64.6 °F 30.23 in Calm     75% 0.00 in 0.0 W/m2 SCT
11:55 73.0 °F 64.6 °F 30.23 in Calm     75% 0.00 in 0.0 W/m2 SCT
12:00 73.0 °F 64.6 °F 30.23 in Calm     75% 0.00 in 0.0 W/m2 SCT
12:05 77.0 °F 59.6 °F 30.21 in Calm     55% 0.00 in 0.0 W/m2 SCT
12:10 77.0 °F 59.6 °F 30.21 in Calm     55% 0.00 in 0.0 W/m2 SCT
12:15 77.0 °F 59.6 °F 30.21 in Calm     55% 0.00 in 0.0 W/m2 SCT
12:20 77.0 °F 59.6 °F 30.21 in Calm     55% 0.00 in 0.0 W/m2 SCT
12:25 77.0 °F 59.6 °F 30.21 in Calm     55% 0.00 in 0.0 W/m2 SCT
12:30 77.0 °F 59.6 °F 30.21 in Calm     55% 0.00 in 0.0 W/m2 SCT
12:35 77.0 °F 59.6 °F 30.21 in Calm     55% 0.00 in 0.0 W/m2 SCT
12:40 77.0 °F 59.6 °F 30.21 in Calm     55% 0.00 in 0.0 W/m2 SCT
12:45 77.0 °F 59.6 °F 30.21 in Calm     55% 0.00 in 0.0 W/m2 SCT
12:50 77.0 °F 59.6 °F 30.21 in Calm     55% 0.00 in 0.0 W/m2 SCT
12:55 77.0 °F 59.6 °F 30.21 in Calm     55% 0.00 in 0.0 W/m2 SCT
13:00 77.0 °F 59.6 °F 30.21 in Calm     55% 0.00 in 0.0 W/m2 SCT
13:05 80.1 °F 56.8 °F 30.18 in Calm     45% 0.00 in 0.0 W/m2 SCT
13:10 80.1 °F 56.8 °F 30.18 in Calm     45% 0.00 in 0.0 W/m2 SCT
13:15 80.1 °F 56.8 °F 30.18 in Calm     45% 0.00 in 0.0 W/m2 SCT
13:20 80.1 °F 56.8 °F 30.18 in Calm     45% 0.00 in 0.0 W/m2 SCT
13:25 80.1 °F 56.8 °F 30.18 in Calm     45% 0.00 in 0.0 W/m2 SCT
13:30 80.1 °F 56.8 °F 30.18 in Calm     45% 0.00 in 0.0 W/m2 SCT
13:35 80.1 °F 56.8 °F 30.18 in Calm     45% 0.00 in 0.0 W/m2 SCT
13:40 80.1 °F 56.8 °F 30.18 in Calm     45% 0.00 in 0.0 W/m2 SCT
13:45 80.1 °F 56.8 °F 30.18 in Calm     45% 0.00 in 0.0 W/m2 SCT
13:50 80.1 °F 56.8 °F 30.18 in Calm     45% 0.00 in 0.0 W/m2 SCT
13:55 80.1 °F 56.8 °F 30.18 in Calm     45% 0.00 in 0.0 W/m2 SCT
14:00 80.1 °F 56.8 °F 30.18 in Calm     45% 0.00 in 0.0 W/m2 SCT
14:05 82.0 °F 57.3 °F 30.15 in Calm     43% 0.00 in 0.0 W/m2 CLR
14:10 82.0 °F 57.3 °F 30.15 in Calm     43% 0.00 in 0.0 W/m2 CLR
14:15 82.0 °F 57.3 °F 30.15 in Calm     43% 0.00 in 0.0 W/m2 CLR
14:20 82.0 °F 57.3 °F 30.15 in Calm     43% 0.00 in 0.0 W/m2 CLR
14:25 82.0 °F 57.3 °F 30.15 in Calm     43% 0.00 in 0.0 W/m2 CLR
14:30 82.0 °F 57.3 °F 30.15 in Calm     43% 0.00 in 0.0 W/m2 CLR
14:35 82.0 °F 57.3 °F 30.15 in Calm     43% 0.00 in 0.0 W/m2 CLR
14:40 82.0 °F 57.3 °F 30.15 in Calm     43% 0.00 in 0.0 W/m2 CLR
14:45 82.0 °F 57.3 °F 30.15 in Calm     43% 0.00 in 0.0 W/m2 CLR
14:50 82.0 °F 57.3 °F 30.15 in Calm     43% 0.00 in 0.0 W/m2 CLR
14:55 82.0 °F 57.3 °F 30.15 in Calm     43% 0.00 in 0.0 W/m2 CLR
15:00 82.0 °F 57.3 °F 30.15 in Calm     43% 0.00 in 0.0 W/m2 CLR
15:05 82.9 °F 55.4 °F 30.13 in Calm     39% 0.00 in 0.0 W/m2 FEW
15:10 82.9 °F 55.4 °F 30.13 in Calm     39% 0.00 in 0.0 W/m2 FEW
15:15 82.9 °F 55.4 °F 30.13 in Calm     39% 0.00 in 0.0 W/m2 FEW
15:20 82.9 °F 55.4 °F 30.13 in Calm     39% 0.00 in 0.0 W/m2 FEW
15:25 82.9 °F 55.4 °F 30.13 in Calm     39% 0.00 in 0.0 W/m2 FEW
15:30 82.9 °F 55.4 °F 30.13 in Calm     39% 0.00 in 0.0 W/m2 FEW
15:35 82.9 °F 55.4 °F 30.13 in Calm     39% 0.00 in 0.0 W/m2 FEW
15:40 82.9 °F 55.4 °F 30.13 in Calm     39% 0.00 in 0.0 W/m2 FEW
15:45 82.9 °F 55.4 °F 30.13 in Calm     39% 0.00 in 0.0 W/m2 FEW
15:50 82.9 °F 55.4 °F 30.13 in Calm     39% 0.00 in 0.0 W/m2 FEW
15:55 82.9 °F 55.4 °F 30.13 in Calm     39% 0.00 in 0.0 W/m2 FEW
16:00 82.9 °F 55.4 °F 30.13 in Calm     39% 0.00 in 0.0 W/m2 FEW
16:05 84.0 °F 54.9 °F 30.14 in Calm     37% 0.00 in 0.0 W/m2 CLR
16:10 84.0 °F 54.9 °F 30.14 in Calm     37% 0.00 in 0.0 W/m2 CLR
16:15 84.0 °F 54.9 °F 30.14 in Calm     37% 0.00 in 0.0 W/m2 CLR
16:20 84.0 °F 54.9 °F 30.14 in Calm     37% 0.00 in 0.0 W/m2 CLR
16:25 84.0 °F 54.9 °F 30.14 in Calm     37% 0.00 in 0.0 W/m2 CLR
16:30 84.0 °F 54.9 °F 30.14 in Calm     37% 0.00 in 0.0 W/m2 CLR
16:35 84.0 °F 54.9 °F 30.14 in Calm     37% 0.00 in 0.0 W/m2 CLR
16:40 84.0 °F 54.9 °F 30.14 in Calm     37% 0.00 in 0.0 W/m2 CLR
16:45 84.0 °F 54.9 °F 30.14 in Calm     37% 0.00 in 0.0 W/m2 CLR
16:50 84.0 °F 54.9 °F 30.14 in Calm     37% 0.00 in 0.0 W/m2 CLR
16:55 84.0 °F 54.9 °F 30.14 in Calm     37% 0.00 in 0.0 W/m2 CLR
17:00 84.0 °F 54.9 °F 30.14 in Calm     37% 0.00 in 0.0 W/m2 CLR
17:05 82.0 °F 54.6 °F 30.16 in Calm     39% 0.00 in 0.0 W/m2 CLR
17:10 82.0 °F 54.6 °F 30.16 in Calm     39% 0.00 in 0.0 W/m2 CLR
17:15 82.0 °F 54.6 °F 30.16 in Calm     39% 0.00 in 0.0 W/m2 CLR
17:20 82.0 °F 54.6 °F 30.16 in Calm     39% 0.00 in 0.0 W/m2 CLR
17:25 82.0 °F 54.6 °F 30.16 in Calm     39% 0.00 in 0.0 W/m2 CLR
17:30 82.0 °F 54.6 °F 30.16 in Calm     39% 0.00 in 0.0 W/m2 CLR
17:35 82.0 °F 54.6 °F 30.16 in Calm     39% 0.00 in 0.0 W/m2 CLR
17:40 82.0 °F 54.6 °F 30.16 in Calm     39% 0.00 in 0.0 W/m2 CLR
17:45 82.0 °F 54.6 °F 30.16 in Calm     39% 0.00 in 0.0 W/m2 CLR
17:50 82.0 °F 54.6 °F 30.16 in Calm     39% 0.00 in 0.0 W/m2 CLR
17:55 82.0 °F 54.6 °F 30.16 in Calm     39% 0.00 in 0.0 W/m2 CLR
18:00 82.0 °F 54.6 °F 30.16 in Calm     39% 0.00 in 0.0 W/m2 CLR
18:05 80.1 °F 54.9 °F 30.17 in Calm     42% 0.00 in 0.0 W/m2 CLR
18:10 80.1 °F 54.9 °F 30.17 in Calm     42% 0.00 in 0.0 W/m2 CLR
18:15 80.1 °F 54.9 °F 30.17 in Calm     42% 0.00 in 0.0 W/m2 CLR
18:20 80.1 °F 54.9 °F 30.17 in Calm     42% 0.00 in 0.0 W/m2 CLR
18:25 80.1 °F 54.9 °F 30.17 in Calm     42% 0.00 in 0.0 W/m2 CLR
18:30 80.1 °F 54.9 °F 30.17 in Calm     42% 0.00 in 0.0 W/m2 CLR
18:35 80.1 °F 54.9 °F 30.17 in Calm     42% 0.00 in 0.0 W/m2 CLR
18:40 80.1 °F 54.9 °F 30.17 in Calm     42% 0.00 in 0.0 W/m2 CLR
18:45 80.1 °F 54.9 °F 30.17 in Calm     42% 0.00 in 0.0 W/m2 CLR
18:50 80.1 °F 54.9 °F 30.17 in Calm     42% 0.00 in 0.0 W/m2 CLR
18:55 80.1 °F 54.9 °F 30.17 in Calm     42% 0.00 in 0.0 W/m2 CLR
19:00 80.1 °F 54.9 °F 30.17 in Calm     42% 0.00 in 0.0 W/m2 CLR
19:05 77.0 °F 52.8 °F 30.19 in Calm     43% 0.00 in 0.0 W/m2 CLR
19:10 77.0 °F 52.8 °F 30.19 in Calm     43% 0.00 in 0.0 W/m2 CLR
19:15 77.0 °F 52.8 °F 30.19 in Calm     43% 0.00 in 0.0 W/m2 CLR
19:20 77.0 °F 52.8 °F 30.19 in Calm     43% 0.00 in 0.0 W/m2 CLR
19:25 77.0 °F 52.8 °F 30.19 in Calm     43% 0.00 in 0.0 W/m2 CLR
19:30 77.0 °F 52.8 °F 30.19 in Calm     43% 0.00 in 0.0 W/m2 CLR
19:35 77.0 °F 52.8 °F 30.19 in Calm     43% 0.00 in 0.0 W/m2 CLR
19:40 77.0 °F 52.8 °F 30.19 in Calm     43% 0.00 in 0.0 W/m2 CLR
19:45 77.0 °F 52.8 °F 30.19 in Calm     43% 0.00 in 0.0 W/m2 CLR
19:50 77.0 °F 52.8 °F 30.19 in Calm     43% 0.00 in 0.0 W/m2 CLR
19:55 77.0 °F 52.8 °F 30.19 in Calm     43% 0.00 in 0.0 W/m2 CLR
20:00 77.0 °F 52.8 °F 30.19 in Calm     43% 0.00 in 0.0 W/m2 CLR
20:05 75.9 °F 53.6 °F 30.20 in Calm     46% 0.00 in 0.0 W/m2 CLR
20:10 75.9 °F 53.6 °F 30.20 in Calm     46% 0.00 in 0.0 W/m2 CLR
20:15 75.9 °F 53.6 °F 30.20 in Calm     46% 0.00 in 0.0 W/m2 CLR
20:20 75.9 °F 53.6 °F 30.20 in Calm     46% 0.00 in 0.0 W/m2 CLR
20:25 75.9 °F 53.6 °F 30.20 in Calm     46% 0.00 in 0.0 W/m2 CLR
20:30 75.9 °F 53.6 °F 30.20 in Calm     46% 0.00 in 0.0 W/m2 CLR
20:35 75.9 °F 53.6 °F 30.20 in Calm     46% 0.00 in 0.0 W/m2 CLR
20:40 75.9 °F 53.6 °F 30.20 in Calm     46% 0.00 in 0.0 W/m2 CLR
20:45 75.9 °F 53.6 °F 30.20 in Calm     46% 0.00 in 0.0 W/m2 CLR
20:50 75.9 °F 53.6 °F 30.20 in Calm     46% 0.00 in 0.0 W/m2 CLR
20:55 75.9 °F 53.6 °F 30.20 in Calm     46% 0.00 in 0.0 W/m2 CLR
21:00 75.9 °F 53.6 °F 30.20 in Calm     46% 0.00 in 0.0 W/m2 CLR
21:05 73.0 °F 56.9 °F 30.21 in Calm     57% 0.00 in 0.0 W/m2 CLR
21:10 73.0 °F 56.9 °F 30.21 in Calm     57% 0.00 in 0.0 W/m2 CLR
21:15 73.0 °F 56.9 °F 30.21 in Calm     57% 0.00 in 0.0 W/m2 CLR
21:20 73.0 °F 56.9 °F 30.21 in Calm     57% 0.00 in 0.0 W/m2 CLR
21:25 73.0 °F 56.9 °F 30.21 in Calm     57% 0.00 in 0.0 W/m2 CLR
21:30 73.0 °F 56.9 °F 30.21 in Calm     57% 0.00 in 0.0 W/m2 CLR
21:35 73.0 °F 56.9 °F 30.21 in Calm     57% 0.00 in 0.0 W/m2 CLR
21:40 73.0 °F 56.9 °F 30.21 in Calm     57% 0.00 in 0.0 W/m2 CLR
21:45 73.0 °F 56.9 °F 30.21 in Calm     57% 0.00 in 0.0 W/m2 CLR
21:50 73.0 °F 56.9 °F 30.21 in Calm     57% 0.00 in 0.0 W/m2 CLR
21:55 73.0 °F 56.9 °F 30.21 in Calm     57% 0.00 in 0.0 W/m2 CLR
22:00 73.0 °F 56.9 °F 30.21 in Calm     57% 0.00 in 0.0 W/m2 CLR
22:05 71.1 °F 56.9 °F 30.23 in Calm     61% 0.00 in 0.0 W/m2 CLR
22:10 71.1 °F 56.9 °F 30.23 in Calm     61% 0.00 in 0.0 W/m2 CLR
22:15 71.1 °F 56.9 °F 30.23 in Calm     61% 0.00 in 0.0 W/m2 CLR
22:20 71.1 °F 56.9 °F 30.23 in Calm     61% 0.00 in 0.0 W/m2 CLR
22:25 71.1 °F 56.9 °F 30.23 in Calm     61% 0.00 in 0.0 W/m2 CLR
22:30 71.1 °F 56.9 °F 30.23 in Calm     61% 0.00 in 0.0 W/m2 CLR
22:35 71.1 °F 56.9 °F 30.23 in Calm     61% 0.00 in 0.0 W/m2 CLR
22:40 71.1 °F 56.9 °F 30.23 in Calm     61% 0.00 in 0.0 W/m2 CLR
22:45 71.1 °F 56.9 °F 30.23 in Calm     61% 0.00 in 0.0 W/m2 CLR
22:50 71.1 °F 56.9 °F 30.23 in Calm     61% 0.00 in 0.0 W/m2 CLR
22:55 71.1 °F 56.9 °F 30.23 in Calm     61% 0.00 in 0.0 W/m2 CLR
23:00 71.1 °F 56.9 °F 30.23 in Calm     61% 0.00 in 0.0 W/m2 CLR
23:05 68.0 °F 57.8 °F 30.22 in Calm     70% 0.00 in 0.0 W/m2 CLR
23:10 68.0 °F 57.8 °F 30.22 in Calm     70% 0.00 in 0.0 W/m2 CLR
23:15 68.0 °F 57.8 °F 30.22 in Calm     70% 0.00 in 0.0 W/m2 CLR
23:20 68.0 °F 57.8 °F 30.22 in Calm     70% 0.00 in 0.0 W/m2 CLR
23:25 68.0 °F 57.8 °F 30.22 in Calm     70% 0.00 in 0.0 W/m2 CLR
23:30 68.0 °F 57.8 °F 30.22 in Calm     70% 0.00 in 0.0 W/m2 CLR
23:35 68.0 °F 57.8 °F 30.22 in Calm     70% 0.00 in 0.0 W/m2 CLR
23:40 68.0 °F 57.8 °F 30.22 in Calm     70% 0.00 in 0.0 W/m2 CLR
23:45 68.0 °F 57.8 °F 30.22 in Calm     70% 0.00 in 0.0 W/m2 CLR
23:50 68.0 °F 57.8 °F 30.22 in Calm     70% 0.00 in 0.0 W/m2 CLR
23:55 68.0 °F 57.8 °F 30.22 in Calm     70% 0.00 in 0.0 W/m2 CLR
Lake Mary, FL, USA
Compliments of Weather Underground - 1.75 mb